This demonstration page uses our WeatherBlox Daily Observations layout. Learn more.

Left ArrowRight Arrow

30.00354, -91.81873

Hourly Observations for August 11, 2022

Temp ( °F °C ) Dew Point ( °F °C ) Humidity (%) Winds ( mph kmh ) Pressure ( in mb ) Visibility ( mi km ) Precip ( " mm )
12:00 am 00:00 Partly Cloudy with Mist and Fog 77 25 75 23.9 94 94 Calm 30.06 1018 2 3 0.00 0.00
12:06 am 00:06 Mostly Clear with Mist and Fog 77 25 75 23.9 94 94 ENE 3 6 30.06 1018 1 1 0.00 0.00
12:16 am 00:16 Mostly Cloudy with Mist and Fog 76 24.4 75 23.9 97 97 E 5 7 30.05 1018 3 5 0.00 0.00
12:41 am 00:41 Partly Cloudy 76 24.4 74 23.3 94 94 E 5 7 30.05 1018 10 16 0.00 0.00
12:53 am 00:53 Mostly Clear 76 24.4 74 23.3 94 94 Calm 30.04 1017 10 16 0.00 0.00
1:53 am 01:53 Clear 76 24.4 74 23.3 94 94 Calm 30.04 1017 10 16 0.00 0.00
2:53 am 02:53 Clear 76 24.4 73 22.8 91 91 NNE 3 6 30.02 1017 10 16 0.00 0.00
3:53 am 03:53 Clear 75 23.9 73 22.8 94 94 Calm 30.01 1016 9 14 0.00 0.00
4:53 am 04:53 Partly Cloudy 76 24.4 74 23.3 94 94 NE 6 9 30.00 1016 9 14 0.00 0.00
5:02 am 05:02 Mostly Cloudy 75 23.9 73 22.8 94 94 NE 5 7 30.00 1016 9 14 0.00 0.00
5:53 am 05:53 Cloudy 75 23.9 73 22.8 94 94 NE 5 7 30.00 1016 10 16 0.00 0.00
6:20 am 06:20 Mostly Clear 75 23.9 73 22.8 94 94 NE 5 7 30.01 1016 10 16 0.00 0.00
6:26 am 06:26 Mostly Cloudy with Mist and Fog 75 23.9 73 22.8 94 94 NE 5 7 30.01 1016 2 3 0.00 0.00
6:53 am 06:53 Mostly Cloudy 75 23.9 73 22.8 94 94 VRB 3 6 30.01 1016 10 16 0.00 0.00
7:28 am 07:28 Cloudy 75 23.9 73 22.8 94 94 ENE 6 9 30.02 1017 10 16 0.00 0.00
7:40 am 07:40 Mostly Cloudy 77 25 74 23.3 90 90 NE 5 7 30.02 1017 10 16 0.00 0.00
7:53 am 07:53 Mostly Cloudy 76 24.4 74 23.3 94 94 ENE 6 9 30.03 1017 10 16 0.00 0.00
8:00 am 08:00 Mostly Cloudy 77 25 74 23.3 90 90 ENE 6 9 30.03 1017 10 16 0.00 0.00
8:33 am 08:33 Partly Cloudy 79 26.1 75 23.9 88 88 E 6 9 30.03 1017 10 16 0.00 0.00
8:53 am 08:53 Mostly Sunny 80 26.7 75 23.9 85 85 ENE 7 11 30.03 1017 10 16 0.00 0.00
9:53 am 09:53 Sunny 82 27.8 75 23.9 79 79 ENE 7 11 30.03 1017 10 16 0.00 0.00
10:53 am 10:53 Mostly Sunny 85 29.4 75 23.9 72 72 ENE 6 9 30.03 1017 10 16 0.00 0.00
11:53 am 11:53 Cloudy 85 29.4 73 22.8 68 68 E 7 11 30.02 1017 10 16 0.00 0.00
12:53 pm 12:53 Mostly Cloudy 82 27.8 74 23.3 77 77 WNW 6 9 30.01 1016 10 16 0.00 0.00
1:16 pm 13:16 Cloudy with Rain 80 26.7 74 23.3 82 82 S 8 13 30.00 1016 4 6 0.02 0.51
1:53 pm 13:53 Cloudy with Rain 78 25.6 74 23.3 87 87 N 10 17 29.99 1016 2 2 0.17 4.32
2:14 pm 14:14 Cloudy with Heavy Rain 77 25 73 22.8 88 88 E 8 13 30.01 1016 1 1 0.36 9.14
2:21 pm 14:21 Cloudy with Strong Thunderstorms 77 25 74 23.3 90 90 SE 8 13 30.00 1016 1 1 0.52 13.21
2:43 pm 14:43 Cloudy with Thunderstorms 76 24.4 73 22.8 91 91 S 7 11 30.00 1016 2 3 0.86 21.84
2:53 pm 14:53 Cloudy with Thunderstorms 76 24.4 73 22.8 91 91 S 5 7 29.99 1016 10 16 0.86 21.84
3:02 pm 15:02 Cloudy with Nearby Thunderstorms 77 25 73 22.8 88 88 SSE 3 6 29.99 1016 10 16 0.01 0.13
3:30 pm 15:30 Mostly Sunny 78 25.6 73 22.8 85 85 Calm 29.98 1015 10 16 0.01 0.13
3:53 pm 15:53 Mostly Cloudy 79 26.1 73 22.8 82 82 Calm 29.98 1015 10 16 0.01 0.13
4:53 pm 16:53 Sunny 79 26.1 73 22.8 82 82 Calm 29.95 1014 10 16 0.00 0.00
5:53 pm 17:53 Sunny 82 27.8 74 23.3 77 77 Calm 29.93 1014 10 16 0.00 0.00
6:53 pm 18:53 Partly Cloudy 81 27.2 73 22.8 77 77 E 6 9 29.94 1014 10 16 0.00 0.00
7:53 pm 19:53 Partly Cloudy 79 26.1 74 23.3 85 85 SSE 5 7 29.96 1014 10 16 0.00 0.00
8:53 pm 20:53 Clear 76 24.4 74 23.3 94 94 SSE 6 9 29.97 1015 10 16 0.00 0.00
9:53 pm 21:53 Clear 76 24.4 73 22.8 91 91 ESE 3 6 29.99 1016 10 16 0.00 0.00
10:53 pm 22:53 Clear 76 24.4 73 22.8 91 91 Calm 29.99 1016 10 16 0.00 0.00
11:53 pm 23:53 Clear 76 24.4 73 22.8 91 91 Calm 29.99 1016 10 16 0.00 0.00

Powered by AerisWeather